Meteo Giornale » Osservazioni meteo Hong Kong » Hong Kong Inter-National
ore: 15:00 - Osservazioni Meteo Hong Kong Inter-National
Lat. 22° 20' N Lon. 114° 11' E Alt. 5 metri s.l.m.
28 °C
Pioggia
Temp. 24 Ore
27 °C
29 °C
Nord-Est
13 Km/h
Dew point 25 °C
Umidità 83 %
Visibilità 10 Km
Il sole sorge alle ore 06:05
Il sole tramonta alle ore 18:40
| Data e Ora | Cielo e Fenomeni | T °C | DP °C | Um. % | Pres. hPa | Vis. km | Vento km/h | |
|---|---|---|---|---|---|---|---|---|
| Oggi h: 15:00 | Pioggia | 28 | 25 | 83 | 996 | 10 | NE 13 | |
| Oggi h: 14:30 | Pioggia | 28 | 25 | 83 | 996 | 10 | E/NE 18.5 | |
| Oggi h: 14:00 | Pioggia | 27 | 25 | 88 | 997 | 10 | E/NE 18.5 | |
| Oggi h: 13:30 | Pioggia | 27 | 25 | 88 | 997 | 10 | NE 22.2 | |
| Oggi h: 13:00 | Pioggia | 27 | 25 | 88 | 997 | 8 | NE 24 | |
| Oggi h: 12:30 | Pioggia | 27 | 25 | 88 | 998 | 7 | NE 14.8 | |
| Oggi h: 12:15 | Pioggia | 27 | 25 | 88 | 998 | 10 | N/NE 14.8 | |
| Oggi h: 12:00 | Pioggia | 27 | 25 | 88 | 998 | 10 | N/NE 18.5 | |
| Oggi h: 11:30 | Pioggia | 28 | 25 | 83 | 998 | 10 | N/NE 16.7 | |
| Oggi h: 11:00 | Pioggia | 28 | 25 | 83 | 998 | 10 | NE 18.5 | |
| Oggi h: 10:30 | Nuvoloso | 29 | 25 | 79 | 998 | 10 | N/NE 14.8 | |
| Oggi h: 10:00 | Nuvoloso | 28 | 25 | 83 | 998 | 10 | N/NE 14.8 | |
| Oggi h: 09:30 | Pioggia | 27 | 25 | 88 | 998 | 10 | N/NE 16.7 | |
| Oggi h: 09:00 | Pioggia | 28 | 25 | 83 | 998 | 10 | N 16.7 | |
| Oggi h: 08:30 | Nuvoloso | 28 | 24 | 78 | 998 | 10 | N/NE 13 | |
| Oggi h: 08:00 | Pioggia nelle vicinanze | 28 | 25 | 83 | 998 | 10 | NE 13 | |
| Oggi h: 07:30 | Pioggia nelle vicinanze | 27 | 25 | 88 | 998 | 10 | NE 13 | |
| Oggi h: 07:00 | Nuvoloso | 28 | 25 | 83 | 997 | 10 | NE 11.1 | |
| Oggi h: 06:30 | Nuvoloso | 27 | 25 | 88 | 997 | 10 | E 11.1 | |
| Oggi h: 06:00 | Pioggia | 27 | 25 | 88 | 997 | 10 | NE 7.4 | |
| Oggi h: 05:30 | Pioggia | 27 | 25 | 88 | 997 | 10 | NE 9.3 | |
| Oggi h: 05:00 | Nuvoloso | 27 | 25 | 88 | 997 | 10 | E/NE 7.4 | |
| Oggi h: 04:30 | Pioggia | 27 | 25 | 88 | 997 | 10 | N/NE 11.1 | |
| Oggi h: 04:25 | Pioggia | 27 | 25 | 88 | 997 | 10 | NE 9.3 | |
| Oggi h: 04:13 | Pioggia | 27 | 25 | 88 | 997 | 5 | N 14.8 | |
| Oggi h: 04:00 | Nuvoloso | 28 | 25 | 83 | 997 | 10 | N 14.8 | |
| Oggi h: 03:30 | Nuvoloso | 28 | 24 | 78 | 997 | 10 | N/NO 13 | |
| Oggi h: 03:00 | Nuvoloso | 28 | 25 | 83 | 997 | 10 | N 11.1 | |
| Oggi h: 02:30 | Nuvoloso | 27 | 25 | 88 | 998 | 10 | N 11.1 | |
| Oggi h: 02:00 | Nuvoloso | 28 | 25 | 83 | 998 | 10 | N 9.3 | |
| Oggi h: 01:30 | Nuvoloso | 28 | 25 | 83 | 998 | 10 | N/NE 11.1 | |
| Oggi h: 01:00 | Nuvoloso | 28 | 25 | 83 | 998 | 10 | N/NE 11.1 | |
| Oggi h: 00:30 | Pioggia | 28 | 25 | 83 | 999 | 10 | N 13 | |
| Oggi h: 00:00 | Pioggia | 28 | 25 | 83 | 999 | 10 | N/NO 9.3 | |
| Ieri h: 23:30 | Nuvoloso | 28 | 25 | 83 | 999 | 10 | N 11.1 | |
| Ieri h: 23:00 | Nuvoloso | 28 | 26 | 88 | 999 | 10 | N 14.8 | |
| Ieri h: 22:30 | Nuvoloso | 28 | 26 | 88 | 999 | 10 | N 14.8 | |
| Ieri h: 22:00 | Pioggia | 27 | 26 | 94 | 999 | 10 | N 5.5 | |
| Ieri h: 21:30 | Pioggia | 27 | 26 | 94 | 999 | 7 | N/NE 11.1 | |
| Ieri h: 21:07 | Pioggia | 28 | 26 | 88 | 999 | 10 | N 11.1 | |
| Ieri h: 21:00 | Nuvoloso | 28 | 25 | 83 | 999 | 10 | N 11.1 | |
| Ieri h: 20:30 | Nuvoloso | 28 | 25 | 83 | 999 | 10 | N 9.3 | |
| Ieri h: 20:00 | Nuvoloso | 27 | 25 | 88 | 998 | 10 | N 14.8 | |
| Ieri h: 19:30 | Pioggia | 27 | 25 | 88 | 998 | 10 | N/NO 14.8 | |
| Ieri h: 19:00 | Pioggia | 28 | 26 | 88 | 998 | 10 | N/NO 11.1 | |
| Ieri h: 18:30 | Pioggia | 28 | 26 | 88 | 998 | 10 | N/NO 9.3 | |
| Ieri h: 18:00 | Pioggia | 29 | 25 | 79 | 997 | 10 | N 5.5 | |
| Ieri h: 17:30 | Pioggia nelle vicinanze | 29 | 25 | 79 | 997 | 10 | N/NO 11.1 | |
| Ieri h: 17:00 | Poco Nuvoloso | 29 | 25 | 79 | 997 | 10 | N/NE 7.4 | |
| Ieri h: 16:30 | Poco Nuvoloso | 29 | 25 | 79 | 997 | 10 | NE 9.3 | |
| Ieri h: 16:00 | Poco Nuvoloso | 29 | 25 | 79 | 997 | 10 | E 9.3 | |



